Oak Ridge, TN

4:44 PM EST on November 21, 2019 (GMT -0500)
Oak Ridge

Weather History for KOQT - September, 2019

Change the Weather History Date:

Sunday, September 29, 2019

  Actual Average (WUND) Record (WUND)
Temperature  
Mean Temperature 82 °F -  
Max Temperature 93 °F - - (-1)
Min Temperature 70 °F - - (-1)
Cooling Degree Days 16    
Growing Degree Days 32 (Base 50)    
Moisture  
Dew Point 68 °F    
Average Humidity 66    
Maximum Humidity 90    
Minimum Humidity 41    
Precipitation  
Precipitation 0.00 in - - ()
Sea Level Pressure  
Sea Level Pressure 30.16 in    
Wind  
Wind Speed 1 mph ()    
Max Wind Speed 6 mph    
Max Gust Speed -    
Visibility 9.8 miles    
Events      
Averages and records for this station are not official NWS values.
T = Trace of Precipitation, MM = Missing Value Source: Averaged Metar Reports

Daily Weather History Graph

Daily Weather History Graph

Search for Another Location

Airport or City:

Astronomy

Sep. 29, 2019 Rise Set
Actual Time 7:30 AM EDT 7:23 PM EDT
Civil Twilight 7:04 AM EDT 7:49 PM EDT
Nautical Twilight 6:34 AM EDT 8:19 PM EDT
Astronomical Twilight 6:04 AM EDT 8:48 PM EDT
Moon 8:19 AM EDT (9/29) 8:24 PM EDT (9/29)
Length of Visible Light 12h 44m
Length of Day
11h 53m
New Moon, 1% of the Moon is Illuminated
Sep 29
New Moon
Oct 5
First Quarter
Oct 13
Full
Oct 21
Last Quarter
Oct 27
New

Hourly Weather History & Observations

Time (EDT) Temp. Heat Index Dew Point Humidity Pressure Visibility Wind Dir Wind Speed Gust Speed Precip Events Conditions
1:53 AM 73.9 °F - 66.9 °F 79% 30.14 in 10.0 mi Calm Calm - N/A   Clear
2:53 AM 72.0 °F - 66.9 °F 84% 30.15 in 10.0 mi Calm Calm - N/A   Partly Cloudy
3:53 AM 73.0 °F - 68.0 °F 84% 30.15 in 10.0 mi Calm Calm - N/A   Overcast
4:53 AM 72.0 °F - 68.0 °F 87% 30.16 in 10.0 mi Calm Calm - N/A   Mostly Cloudy
5:53 AM 72.0 °F - 66.9 °F 84% 30.16 in 10.0 mi Calm Calm - N/A   Mostly Cloudy
6:53 AM 71.1 °F - 66.9 °F 87% 30.17 in 10.0 mi Calm Calm - N/A   Clear
7:53 AM 70.0 °F - 66.9 °F 90% 30.20 in 6.0 mi Calm Calm - N/A   Clear
8:53 AM 73.0 °F - 68.0 °F 84% 30.21 in 9.0 mi Calm Calm - N/A   Clear
9:53 AM 78.1 °F - 66.9 °F 68% 30.22 in 10.0 mi Calm Calm - N/A   Clear
10:53 AM 82.0 °F 84.5 °F 66.9 °F 60% 30.22 in 10.0 mi Calm Calm - N/A   Clear
11:53 AM 84.9 °F 88.2 °F 68.0 °F 57% 30.20 in 10.0 mi WSW 4.6 mph - N/A   Clear
12:53 PM 88.0 °F 91.4 °F 68.0 °F 51% 30.18 in 10.0 mi West 4.6 mph - N/A   Clear
1:53 PM 91.0 °F 95.2 °F 68.0 °F 47% 30.16 in 10.0 mi Variable 3.5 mph - N/A   Clear
2:53 PM 93.9 °F 98.6 °F 68.0 °F 43% 30.13 in 10.0 mi Variable 3.5 mph - N/A   Partly Cloudy
3:53 PM 93.0 °F 96.4 °F 66.9 °F 42% 30.12 in 10.0 mi Variable 5.8 mph - N/A   Clear
4:53 PM 91.0 °F 93.8 °F 66.0 °F 44% 30.11 in 10.0 mi Variable 3.5 mph - N/A   Clear
5:53 PM 91.9 °F 94.1 °F 64.9 °F 41% 30.10 in 10.0 mi West 4.6 mph - N/A   Clear
6:53 PM 90.0 °F 92.8 °F 66.9 °F 46% 30.11 in 10.0 mi Calm Calm - N/A   Clear
7:53 PM 84.9 °F 88.8 °F 69.1 °F 59% 30.12 in 10.0 mi Calm Calm - N/A   Clear
8:53 PM 82.0 °F 85.5 °F 69.1 °F 65% 30.14 in 10.0 mi Calm Calm - N/A   Clear
9:53 PM 80.1 °F 83.2 °F 70.0 °F 71% 30.15 in 10.0 mi Calm Calm - N/A   Mostly Cloudy
10:53 PM 78.1 °F - 70.0 °F 76% 30.15 in 10.0 mi Calm Calm - N/A   Clear
11:53 PM 77.0 °F - 70.0 °F 79% 30.15 in 10.0 mi Calm Calm - N/A   Clear